星链-5777 (STARLINK-5777 )

导读

STARLINK-5777是一颗由美国(US)SpaceX公司运营的星链卫星,于2023年3月24日发射升空,属于星链星座网络的组成部分。它旨在为全球提供高速低延迟互联网服务,尤其覆盖偏远与基础设施匮乏区域,依托星链星座的部署,进一步推动全球互联覆盖范围拓展,是SpaceX星链计划持续组网进程中的一颗卫星。

基本信息
目录编号:
56027
目录名称:
STARLINK-5777
国际标识:
2023-042AT
轨道中心:
EARTH
卫星名称:
星链-5777
卫星全名:
星链-5777 (STARLINK-5777 )
卫星状态:
在轨 (已飞行1179 天)
发射日期:
2023-03-24 UTC
国别 :
美国 (US)
星等 :
--
轨道信息
数据来源 国际轨道数据 AOE轨道数据
星历时间 2026-06-13T18:31:35+0800
1天前
查看轨道信息
2026-06-11T10:00:00+0800
3天前
查看轨道信息
半长轴 6861.184km 6861.129km
偏心率 0.0001449 0.0000748
轨道倾角 43.006° 43.001°
近地点辐角 264.423° 300.049°
升交点赤经 224.098° 237.400°
平近点角 95.645° 52.565°
近地点 482.052km 482.478km
远地点 484.042km 483.506km
周期 94.267分钟 94.266分钟
每日圈数 15.27581 15.275991
详细信息
固有亮度:
5
最大亮度:
2.5
卫星平台:
Starlink v1.5
覆盖范围:
全球
运营商:
太空探索技术公司
运营商所在国:
美国
制造商(研发单位):
太空探索技术公司
制造商所在国:
美国
使用方式:
暂无
卫星简介
星链(Starlink)计划是由太空探索技术公司(SpaceX)提出的一个巨型低轨卫星互联网星座项目,计划在2019年至2024年间在太空搭建由约1.2万颗卫星组成的“星链”网络,其中1584颗将部署在地球上空550千米处的近地轨道,并从2020年开始工作。该卫星仍在工作。
2D轨道图
3D轨道图
轨道高度分析图
轨道倾角分析图
轨道综合分析图
查看轨道综合分析图